Regional Weather Roundup
Issued by NWS Goodland, KS

Home | Current Version | Previous Version | Graphics & Text | Print | Product List | Glossary On
Versions: 1 2 3 4 5 6 7 8 9 10 11 12 13 14 15 16 17 18 19 20 21 22 23 24 25 26 27 28 29 30 31 32 33 34 35 36 37 38 39 40 41 42 43 44 45 46 47 48 49 50
603
ASUS43 KGLD 262008
RWRGLD

GOODLAND FORECAST AREA HOURLY WEATHER ROUNDUP
NATIONAL WEATHER SERVICE GOODLAND KS
200 PM MDT MON SEP 26 2016

...OFFICIAL OBSERVATIONS...

CITY           SKY/WX    TMP DP  RH WIND       PRES   REMARKS
GOODLAND KS    SUNNY     78  36  21 NW14G20   30.26F
HILL CITY KS   SUNNY     76  39  26 W12G21    30.23F HAZE
IMPERIAL NEB   SUNNY     76  34  21 NW15G21   30.25F
MCCOOK NEB     SUNNY     77  38  24 NW7       30.22F
AKRON CO       SUNNY     73  34  23 NW12G17   30.33F
BURLINGTON CO  SUNNY     76  32  20 N12G18    30.30F
LIMON CO       SUNNY     73  30  20 N7G17     30.36F
$$

...UNOFFICIAL OBSERVATIONS...

CITY           SKY/WX    TMP DP  RH WIND       PRES   REMARKS
COLBY KS       SUNNY     81  43  26 NW12G18   30.25F
LENORA KS        N/A     75  32  20 MISG        N/A
NORTON KS      SUNNY     79  25  13 W9G16     30.21F
SHARON SPRINGS   N/A     77  40  26 W7          N/A
KIT CARSON CO    N/A     76  40  27 MISG        N/A
$$




USA.gov is the U.S. government's official web portal to all federal, state and local government web resources and services.